Location: Latimer
(34.1330°N, 82.5927°W)
Time: 02:06:43
(UTC+00:00)

Tiangong - Visible Passes

Search period start: 19 August 2022 00:00
Search period end: 29 August 2022 00:00
Orbit: 381 x 385 km, 41.5° (Epoch: 18 August)

Date Brightness Start Highest point End Pass type
(mag) Time Alt. Az. Time Alt. Az. Time Alt. Az.
19 Aug 0.0 02:01:11 10° WNW 02:03:44 22° N 02:04:31 20° NNE visible
20 Aug -0.2 01:00:35 10° WNW 01:03:20 27° NNW 01:06:05 10° NE visible
20 Aug 0.9 02:38:13 10° NW 02:39:18 16° NNW 02:39:18 16° NNW visible
21 Aug 0.1 01:37:48 10° NW 01:40:16 20° N 01:41:50 15° NE visible
22 Aug 0.0 00:37:15 10° WNW 00:39:49 22° N 00:42:23 10° NE visible
22 Aug 0.2 02:14:33 10° NW 02:16:27 22° NNW 02:16:27 22° NNW visible
23 Aug 0.0 01:14:15 10° NW 01:16:45 21° N 01:18:53 12° NE visible
23 Aug 1.5 02:50:56 10° NW 02:51:02 11° NW 02:51:02 11° NW visible
24 Aug -0.7 01:50:44 10° NW 01:53:27 31° N 01:53:27 31° N visible
25 Aug -0.3 00:50:30 10° NW 00:53:08 24° N 00:55:47 10° ENE visible
25 Aug 0.8 02:27:04 10° WNW 02:28:00 18° WNW 02:28:00 18° WNW visible
26 Aug -1.6 01:26:49 10° NW 01:29:52 46° NNE 01:30:25 41° NE visible
27 Aug -0.8 00:26:34 10° NW 00:29:26 31° NNE 00:32:18 10° E visible
27 Aug -0.2 02:03:15 10° WNW 02:05:01 28° W 02:05:01 28° W visible
28 Aug -2.2 01:02:51 10° WNW 01:06:00 82° NNE 01:07:29 28° ESE visible
